Location: London
(42.9830°N, 81.2500°W)
Time: 06:19:20
(UTC-04:00)

Amateur Radio Satellites - All Passes

Search period start: 23 May 2015 05:49
Search period end: 24 May 2015 05:49
Location: London, 42.9830°N, 81.2500°W

Satellite Date Start Highest point End Downlink Frequencies (MHz)
Time Altitude Azimuth
VERMONT LUNAR 23 May 05:52:19 05:55:25 46° 170° (S) 05:58:30 437.305
Cosmos 2491 23 May 05:54:39 06:00:11 18° 57° (ENE) 06:06:07 435.465 / 435.565
ISS 23 May 05:58:54 06:01:24 20° 10° (N) 06:03:55 145.825
STRAND 1 23 May 06:00:41 06:02:55 13° 59° (ENE) 06:05:24 437.568
SO-50 23 May 06:16:57 06:21:14 33° 315° (NW) 06:25:38 436.795
AO-7 23 May 06:20:10 06:28:28 68° 293° (WNW) 06:36:43 29.400- 29.500
HORYU 2 23 May 06:24:20 06:27:41 21° 294° (WNW) 06:30:56 437.375
CUBESAT XI-V 23 May 06:27:26 06:31:46 43° 72° (ENE) 06:36:10 437.345
CUTE-I 23 May 06:29:02 06:31:38 14° 87° (E) 06:34:33 437.470
AIST 2 23 May 06:33:04 06:36:43 28° 245° (WSW) 06:40:16 435.215
PRISM 23 May 06:33:57 06:37:12 24° 68° (ENE) 06:40:32 437.425
MOZHAYETS 4 23 May 06:41:14 06:43:21 13° 273° (W) 06:45:14
Cubesat XI-IV 23 May 06:47:14 06:51:11 21° 91° (E) 06:55:18 437.490
YUBILEINY 23 May 06:52:54 06:56:44 14° 76° (ENE) 07:01:11 435.215
PHONESAT 2.4 23 May 07:05:00 07:08:21 48° 170° (S) 07:11:43 2401.200-2431.200
M-CUBED/EXP-1 PRIME 23 May 07:05:59 07:10:10 48° 68° (ENE) 07:14:04 437.505
JAS-2 23 May 07:10:38 07:13:21 14° 301° (WNW) 07:15:49 435.910
AUBIESAT-1 23 May 07:18:23 07:22:36 57° 69° (ENE) 07:26:31 437.475
VERMONT LUNAR 23 May 07:29:19 07:32:26 50° 187° (S) 07:35:33 437.305
ISS 23 May 07:35:06 07:38:20 57° 29° (NNE) 07:41:34 145.825
STRAND 1 23 May 07:36:23 07:41:29 87° 261° (W) 07:46:37 437.568
Cosmos 2491 23 May 07:49:52 07:58:46 82° 81° (E) 08:07:36 435.465 / 435.565
AIST 1 23 May 08:04:00 08:07:11 20° 70° (ENE) 08:10:29
CUBESAT XI-V 23 May 08:06:06 08:09:28 19° 269° (W) 08:12:44 437.345
CUTE-I 23 May 08:07:03 08:12:26 77° 286° (WNW) 08:17:48 437.470
PRISM 23 May 08:08:57 08:12:34 29° 264° (W) 08:16:08 437.425
AO-7 23 May 08:14:49 08:19:56 17° 313° (NW) 08:24:41 29.400- 29.500
Cubesat XI-IV 23 May 08:26:26 08:31:39 52° 289° (WNW) 08:36:50 437.490
BRITE-PL 23 May 08:33:14 08:37:41 24° 90° (E) 08:42:09 437.365/2234.400
M-CUBED/EXP-1 PRIME 23 May 08:42:23 08:45:12 16° 262° (W) 08:47:45 437.505
PHONESAT 2.4 23 May 08:42:54 08:46:17 52° 187° (S) 08:49:40 2401.200-2431.200
YUBILEINY 23 May 08:43:30 08:52:14 75° 95° (E) 09:00:58 435.215
DOVE 4 23 May 08:44:32 08:45:45 11° 83° (E) 08:47:17 437.250
RS-15 23 May 08:48:34 08:55:51 22° 102° (ESE) 09:03:50 29.354- 29.394
AUBIESAT-1 23 May 08:55:26 08:57:39 13° 264° (W) 08:59:37 437.475
GOMX 1 23 May 08:58:04 09:02:27 25° 91° (E) 09:06:47 467.674
VERMONT LUNAR 23 May 09:06:46 09:09:19 21° 203° (SSW) 09:11:50 437.305
ISS 23 May 09:12:05 09:14:31 19° 225° (SW) 09:16:53 145.825
STRAND 1 23 May 09:21:11 09:21:34 10° 275° (W) 09:21:36 437.568
CANX-2 23 May 09:23:56 09:27:23 25° 93° (E) 09:30:53 2200.000
PCSat 23 May 09:24:40 09:25:55 11° 30° (NNE) 09:27:22 145.827
CUTE 1.7 + AOD 2 23 May 09:28:10 09:31:37 25° 94° (E) 09:35:07 437.475
HO-68 23 May 09:35:09 09:41:46 40° 97° (E) 09:48:24 435.675
AIST 1 23 May 09:40:59 09:45:01 36° 268° (W) 09:49:01
Cosmos 2491 23 May 09:48:22 09:54:42 21° 280° (W) 10:00:37 435.465 / 435.565
CUTE-I 23 May 09:49:47 09:51:43 12° 303° (WNW) 09:53:23 437.470
SEEDS 23 May 09:57:13 10:01:13 42° 98° (E) 10:05:11 437.485
ANTELSAT 23 May 10:07:47 10:11:17 22° 66° (ENE) 10:14:53 437.575/2403.000
BRITE-PL 23 May 10:10:57 10:16:30 52° 288° (WNW) 10:21:52 437.365/2234.400
CUBEBUG 2 23 May 10:13:13 10:16:26 20° 91° (E) 10:19:42 437.445
COMPASS 1 23 May 10:17:19 10:21:25 58° 100° (E) 10:25:30 437.405
DOVE 4 23 May 10:19:08 10:24:25 90° 319° (NW) 10:29:25 437.250
POLYITAN 1 23 May 10:20:04 10:21:51 13° 63° (ENE) 10:23:49 437.675
QB50P1 23 May 10:20:34 10:22:16 12° 63° (ENE) 10:24:10 145.935-145.965
PHONESAT 2.4 23 May 10:21:14 10:24:03 23° 203° (SSW) 10:26:52 2401.200-2431.200
CINEMA 3 23 May 10:28:44 10:33:32 57° 99° (E) 10:38:05 145.822/145.860
AAUSAT CUBESAT 2 23 May 10:33:08 10:37:18 76° 103° (ESE) 10:41:25 437.432
ZACube-1 23 May 10:33:38 10:36:48 20° 91° (E) 10:40:02 437.345
GOMX 1 23 May 10:35:35 10:40:48 46° 290° (WNW) 10:45:47 467.674
TIGRISAT 23 May 10:41:33 10:46:00 43° 71° (ENE) 10:50:27 435.000
YUBILEINY 23 May 10:43:01 10:50:06 25° 297° (WNW) 10:56:53 435.215
Cosmos 2504 23 May 10:45:14 10:53:11 49° 91° (E) 11:00:44 435.465 / 435.565
UKube-1 23 May 10:45:51 10:47:16 12° 88° (E) 10:48:55 .
DX 1 23 May 10:47:39 10:49:46 14° 89° (E) 10:52:05 434.975-435.025
NANOSAT C BR1 23 May 10:51:32 10:55:00 25° 68° (ENE) 10:58:34 145.865
Oscar 11 23 May 10:55:13 10:59:29 60° 100° (E) 11:03:44 145.826/435.025
RS-15 23 May 10:55:54 11:06:49 88° 120° (ESE) 11:18:04 29.354- 29.394
QB50P2 23 May 10:56:06 10:59:47 29° 69° (ENE) 11:03:32 145.880/145.840
CANX-2 23 May 10:59:39 11:03:20 29° 290° (WNW) 11:06:56 2200.000
UNISAT 6 23 May 10:59:50 11:04:31 69° 74° (ENE) 11:09:11 437.425
HUMSAT D 23 May 11:02:42 11:05:34 18° 91° (E) 11:08:31 437.325/437.525
CUTE 1.7 + AOD 2 23 May 11:03:52 11:07:34 29° 290° (WNW) 11:11:09 437.475
PCSat 23 May 11:05:38 11:10:51 46° 52° (NE) 11:16:04 145.827
UWE-3 23 May 11:08:46 11:13:12 61° 100° (E) 11:17:29 435.000/436.395/437.385
POPSAT HIP 1 23 May 11:09:09 11:13:07 38° 71° (ENE) 11:17:08 437.405
DUCHIFAT 1 23 May 11:14:33 11:18:34 42° 72° (ENE) 11:22:39 145.980
AISAT 23 May 11:15:04 11:17:23 14° 89° (E) 11:19:54 437.250
HO-68 23 May 11:22:53 11:29:34 43° 295° (WNW) 11:36:08 435.675
50 SAT 23 May 11:22:57 11:25:23 16° 91° (E) 11:27:55 437.505
SO-50 23 May 11:28:09 11:29:32 11° 27° (NNE) 11:31:06 436.795
DELFI C3 23 May 11:28:50 11:32:51 76° 284° (WNW) 11:36:51 145.870
FUNcube-1 23 May 11:30:17 11:34:41 81° 102° (ESE) 11:38:57 145.935
SEEDS 23 May 11:33:52 11:36:44 18° 294° (WNW) 11:39:28 437.485
ANTELSAT 23 May 11:43:19 11:47:50 43° 262° (W) 11:52:17 437.575/2403.000
CUBEBUG 2 23 May 11:49:05 11:53:23 41° 289° (WNW) 11:57:29 437.445
POLYITAN 1 23 May 11:52:57 11:57:14 69° 258° (WSW) 12:01:34 437.675
QB50P1 23 May 11:53:22 11:57:38 69° 259° (W) 12:01:55 145.935-145.965
COMPASS 1 23 May 11:54:33 11:56:41 13° 296° (WNW) 11:58:38 437.405
BUGSAT 1 23 May 11:56:34 12:00:42 87° 79° (E) 12:04:55 437.445
DOVE 4 23 May 11:58:56 12:01:24 13° 301° (WNW) 12:03:36 437.250
ESTCUBE 1 23 May 12:06:29 12:10:23 28° 95° (E) 12:14:20 437.505/2401.250
CINEMA 3 23 May 12:07:02 12:10:15 17° 297° (WNW) 12:13:15 145.822/145.860
ZACube-1 23 May 12:09:16 12:13:22 38° 289° (WNW) 12:17:19 437.345
AAUSAT CUBESAT 2 23 May 12:11:22 12:12:22 11° 297° (WNW) 12:13:08 437.432
TIGRISAT 23 May 12:19:23 12:22:58 21° 268° (W) 12:26:24 435.000
UKube-1 23 May 12:19:35 12:23:56 67° 286° (WNW) 12:28:14 .
VELOX 1 23 May 12:19:49 12:24:18 66° 102° (ESE) 12:28:45 145.980
DX 1 23 May 12:22:07 12:26:28 58° 287° (WNW) 12:30:47 434.975-435.025
NANOSAT C BR1 23 May 12:26:57 12:30:44 30° 264° (W) 12:34:31 145.865
CUBEBUG 1 23 May 12:30:16 12:34:32 44° 98° (E) 12:38:47 437.445
QB50P2 23 May 12:32:02 12:35:40 26° 266° (W) 12:39:17 145.880/145.840
Oscar 11 23 May 12:32:54 12:35:14 14° 296° (WNW) 12:37:24 145.826/435.025
HUMSAT D 23 May 12:37:36 12:41:32 38° 289° (WNW) 12:45:22 437.325/437.525
Cosmos 2504 23 May 12:39:07 12:46:48 37° 289° (WNW) 12:53:56 435.465 / 435.565
UNISAT 6 23 May 12:39:32 12:41:50 13° 272° (W) 12:43:52 437.425
Oscar 19 23 May 12:45:05 12:48:33 19° 63° (ENE) 12:52:11 437.125/150
POPSAT HIP 1 23 May 12:45:59 12:49:09 20° 268° (W) 12:52:16 437.405
UWE-3 23 May 12:46:45 12:49:15 15° 297° (WNW) 12:51:33 435.000/436.395/437.385
PCSat 23 May 12:49:30 12:54:04 27° 251° (WSW) 12:58:31 145.827
AISAT 23 May 12:49:59 12:54:26 58° 287° (WNW) 12:58:50 437.250
DUCHIFAT 1 23 May 12:51:41 12:54:38 17° 269° (W) 12:57:27 145.980
50 SAT 23 May 12:56:40 13:00:19 37° 288° (WNW) 13:03:53 437.505
SO-50 23 May 13:06:39 13:11:25 45° 49° (NE) 13:16:09 436.795
FUNcube-1 23 May 13:09:05 13:10:24 11° 299° (WNW) 13:11:28 145.935
RS-15 23 May 13:10:59 13:20:50 35° 330° (NNW) 13:30:53 29.354- 29.394
GONETS M04 23 May 13:13:27 13:20:25 28° 83° (E) 13:27:40
CUSAT 1 23 May 13:24:15 13:30:24 35° 87° (E) 13:37:36 437.405
SPROUT 23 May 13:25:12 13:29:25 48° 99° (E) 13:33:37 437.525
ESTCUBE 1 23 May 13:43:18 13:47:14 29° 292° (WNW) 13:51:06 437.505/2401.250
AO-7 23 May 13:43:49 13:44:51 10° 39° (NE) 13:46:22 29.400- 29.500
VELOX 1 23 May 13:57:57 14:00:22 14° 297° (WNW) 14:02:36 145.980
TISAT 1 23 May 14:04:38 14:08:57 85° 284° (WNW) 14:13:13 437.305
DANDE 23 May 14:07:01 14:13:29 54° 92° (E) 14:21:27 436.750
CUBEBUG 1 23 May 14:07:22 14:10:36 19° 294° (WNW) 14:13:42 437.445
Oscar 19 23 May 14:22:19 14:27:28 62° 259° (W) 14:32:39 437.125/150
ITAMSAT 1 23 May 14:27:31 14:32:27 47° 70° (ENE) 14:37:25 435.822/435.867
ITUPSAT 1 23 May 14:35:56 14:40:12 32° 96° (E) 14:44:29 437.325
Gurwin Techsat 1B 23 May 14:41:16 14:46:26 58° 72° (ENE) 14:51:41 435.225
BEESAT 23 May 14:46:09 14:50:39 41° 98° (E) 14:55:09 436.000
SO-50 23 May 14:47:38 14:51:47 26° 247° (WSW) 14:55:46 436.795
SWISSCUBE 23 May 14:53:51 14:58:32 53° 100° (E) 15:03:13 437.505
SPROUT 23 May 15:02:17 15:05:10 17° 295° (WNW) 15:07:54 437.525
CUSAT 1 23 May 15:05:53 15:12:48 53° 288° (WNW) 15:20:49 437.405
GONETS M04 23 May 15:07:53 15:16:40 66° 282° (WNW) 15:25:30
Cosmos 2499 23 May 15:26:43 15:33:53 36° 88° (E) 15:40:46 435.465 / 435.565
AO-7 23 May 15:28:01 15:35:36 43° 61° (ENE) 15:43:19 29.400- 29.500
RS-15 23 May 15:29:09 15:37:46 24° 4° (N) 15:46:43 29.354- 29.394
STARS 23 May 15:34:18 15:36:39 14° 89° (E) 15:39:12 437.465
JAS-2 23 May 15:35:52 15:42:05 40° 69° (ENE) 15:47:43 435.910
HORYU 2 23 May 15:46:05 15:50:18 42° 71° (ENE) 15:54:34 437.375
DANDE 23 May 15:50:51 15:57:12 34° 296° (WNW) 16:04:31 436.750
KKS-1 23 May 15:55:11 15:59:24 38° 98° (E) 16:03:35 437.445
ITAMSAT 1 23 May 16:08:11 16:12:14 22° 268° (W) 16:16:11 435.822/435.867
ITUPSAT 1 23 May 16:13:53 16:18:02 29° 293° (WNW) 16:22:06 437.325
O/OREOS (USA 219) 23 May 16:22:03 16:25:26 22° 103° (ESE) 16:28:56 437.305
Gurwin Techsat 1B 23 May 16:23:08 16:26:54 19° 270° (W) 16:30:28 435.225
BEESAT 23 May 16:24:29 16:28:17 23° 294° (WNW) 16:31:57 436.000
SWISSCUBE 23 May 16:32:42 16:36:02 19° 296° (WNW) 16:39:14 437.505
CUSAT 1 23 May 16:54:49 16:57:53 12° 312° (NW) 17:00:32 437.405
MOZHAYETS 4 23 May 16:56:41 16:59:09 15° 89° (E) 17:01:49
STARS 23 May 17:09:09 17:13:31 55° 287° (WNW) 17:17:50 437.465
GONETS M04 23 May 17:11:15 17:15:47 14° 307° (NW) 17:19:46
Cosmos 2499 23 May 17:19:00 17:26:55 48° 285° (WNW) 17:34:14 435.465 / 435.565
AO-7 23 May 17:20:27 17:28:22 47° 260° (W) 17:36:18 29.400- 29.500
JAS-2 23 May 17:20:54 17:27:13 36° 264° (W) 17:32:50 435.910
HORYU 2 23 May 17:23:52 17:27:10 19° 268° (W) 17:30:22 437.375
KKS-1 23 May 17:32:19 17:35:49 22° 294° (WNW) 17:39:12 437.445
RS-15 23 May 17:43:37 17:54:18 43° 37° (NE) 18:05:33 29.354- 29.394
CUTE-I 23 May 17:51:12 17:55:30 26° 65° (ENE) 17:59:55 437.470
O/OREOS (USA 219) 23 May 18:00:24 18:04:39 38° 300° (WNW) 18:08:53 437.305
Cubesat XI-IV 23 May 18:09:56 18:14:47 38° 68° (ENE) 18:19:42 437.490
CUBESAT XI-V 23 May 18:26:10 18:26:39 10° 86° (E) 18:27:26 437.345
MOZHAYETS 4 23 May 18:32:19 18:36:49 57° 287° (WNW) 18:41:17
BEESAT 3 23 May 18:45:56 18:48:20 16° 111° (ESE) 18:50:53 437.485
YUBILEINY 23 May 18:52:50 19:00:47 39° 70° (ENE) 19:08:48 435.215
Cosmos 2491 23 May 18:59:08 19:04:30 19° 79° (ENE) 19:10:21 435.465 / 435.565
BEESAT 2 23 May 19:27:56 19:31:39 35° 117° (ESE) 19:35:28 435.950
CUTE-I 23 May 19:30:21 19:35:23 43° 262° (W) 19:40:27 437.470
BRITE-PL 23 May 19:44:49 19:48:58 27° 66° (ENE) 19:53:29 437.365/2234.400
STRAND 1 23 May 19:46:22 19:50:48 30° 95° (E) 19:55:20 437.568
PRISM 23 May 19:49:52 19:53:37 33° 97° (E) 19:57:25 437.425
DOVE 4 23 May 19:50:17 19:52:49 14° 60° (ENE) 19:55:38 437.250
Cubesat XI-IV 23 May 19:50:24 19:54:59 29° 266° (W) 19:59:32 437.490
RS-15 23 May 19:56:11 20:07:45 72° 241° (WSW) 20:19:45 29.354- 29.394
CUBESAT XI-V 23 May 20:00:05 20:04:48 84° 283° (WNW) 20:09:30 437.345
HO-68 23 May 20:04:58 20:11:10 34° 62° (ENE) 20:17:30 435.675
GOMX 1 23 May 20:06:44 20:11:00 28° 66° (ENE) 20:15:34 467.674
CANX-2 23 May 20:18:07 20:21:19 21° 67° (ENE) 20:24:36 2200.000
M-CUBED/EXP-1 PRIME 23 May 20:21:34 20:24:21 24° 101° (E) 20:27:08 437.505
BEESAT 3 23 May 20:21:56 20:25:56 52° 307° (NW) 20:30:00 437.485
CUTE 1.7 + AOD 2 23 May 20:22:16 20:25:28 21° 67° (ENE) 20:28:45 437.475
AIST 2 23 May 20:31:01 20:35:06 47° 118° (ESE) 20:39:15 435.215
AUBIESAT-1 23 May 20:33:16 20:36:13 29° 102° (ESE) 20:39:10 437.475
AIST 1 23 May 20:37:12 20:37:59 11° 84° (E) 20:39:01
Cosmos 2504 23 May 20:38:13 20:42:07 16° 58° (ENE) 20:46:21 435.465 / 435.565
YUBILEINY 23 May 20:49:36 20:57:51 49° 271° (W) 21:06:00 435.215
SEEDS 23 May 20:50:10 20:53:58 34° 71° (ENE) 20:57:49 437.485
Cosmos 2491 23 May 20:51:28 21:00:17 90° 284° (WNW) 21:09:11 435.465 / 435.565
BEESAT 2 23 May 21:06:17 21:09:49 26° 315° (NW) 21:13:21 435.950
COMPASS 1 23 May 21:09:18 21:13:16 44° 73° (ENE) 21:17:17 437.405
CUBEBUG 2 23 May 21:12:10 21:15:39 21° 66° (ENE) 21:19:16 437.445
BRITE-PL 23 May 21:22:35 21:27:16 40° 265° (W) 21:32:19 437.365/2234.400
AAUSAT CUBESAT 2 23 May 21:24:34 21:28:39 56° 74° (ENE) 21:32:44 437.432
DOVE 4 23 May 21:24:49 21:29:51 84° 255° (WSW) 21:35:11 437.250
STRAND 1 23 May 21:25:24 21:30:04 35° 292° (WNW) 21:34:41 437.568
PRISM 23 May 21:25:41 21:28:56 22° 293° (WNW) 21:32:04 437.425
ZACube-1 23 May 21:30:30 21:33:48 20° 66° (ENE) 21:37:13 437.345
CINEMA 3 23 May 21:30:34 21:35:25 59° 73° (ENE) 21:40:24 145.822/145.860
CUBESAT XI-V 23 May 21:40:46 21:41:33 10° 300° (WNW) 21:42:06 437.345
UKube-1 23 May 21:41:58 21:43:43 13° 62° (ENE) 21:45:41 .
GOMX 1 23 May 21:44:15 21:48:57 39° 265° (W) 21:53:56 467.674
DX 1 23 May 21:44:33 21:46:51 15° 63° (ENE) 21:49:19 434.975-435.025
Oscar 11 23 May 21:50:40 21:54:52 51° 73° (ENE) 21:59:06 145.826/435.025
HO-68 23 May 21:51:42 21:58:41 52° 260° (W) 22:05:40 435.675
CANX-2 23 May 21:53:05 21:57:03 36° 263° (W) 22:01:00 2200.000
HUMSAT D 23 May 21:55:49 21:58:29 17° 65° (ENE) 22:01:17 437.325/437.525
M-CUBED/EXP-1 PRIME 23 May 21:56:43 21:59:08 18° 298° (WNW) 22:01:27 437.505
CUTE 1.7 + AOD 2 23 May 21:57:14 22:01:12 35° 264° (W) 22:05:08 437.475
UWE-3 23 May 22:06:09 22:10:44 56° 73° (ENE) 22:15:21 435.000/436.395/437.385
AUBIESAT-1 23 May 22:08:45 22:10:51 16° 299° (WNW) 22:12:51 437.475
50 SAT 23 May 22:09:43 22:11:19 12° 64° (ENE) 22:13:04 437.505
AIST 2 23 May 22:10:30 22:13:55 22° 317° (NW) 22:17:18 435.215
AIST 1 23 May 22:10:53 22:15:06 65° 280° (W) 22:19:22
RS-15 23 May 22:11:29 22:18:32 17° 260° (W) 22:24:48 29.354- 29.394
AISAT 23 May 22:14:07 22:16:39 16° 63° (ENE) 22:19:22 437.250
DELFI C3 23 May 22:16:44 22:20:45 73° 76° (ENE) 22:24:47 145.870
FUNcube-1 23 May 22:26:16 22:30:50 71° 75° (ENE) 22:35:26 145.935
SEEDS 23 May 22:26:34 22:29:52 21° 268° (W) 22:33:05 437.485
Cosmos 2504 23 May 22:29:35 22:36:55 86° 82° (E) 22:44:06 435.465 / 435.565
COMPASS 1 23 May 22:46:29 22:49:13 16° 269° (W) 22:51:48 437.405
CUBEBUG 2 23 May 22:47:27 22:52:03 46° 262° (W) 22:56:39 437.445
Cosmos 2491 23 May 22:52:17 22:58:39 20° 301° (WNW) 23:04:41 435.465 / 435.565
UNISAT 6 23 May 22:53:04 22:54:57 13° 88° (E) 22:57:03 437.425
AAUSAT CUBESAT 2 23 May 23:02:42 23:04:41 13° 271° (W) 23:06:27 437.432
ZACube-1 23 May 23:05:27 23:09:52 45° 262° (W) 23:14:18 437.345
ESTCUBE 1 23 May 23:07:08 23:10:59 30° 69° (ENE) 23:14:55 437.505/2401.250
DOVE 4 23 May 23:07:50 23:08:35 10° 277° (W) 23:09:00 437.250
DANDE 23 May 23:08:22 23:10:30 11° 46° (NE) 23:13:04 436.750
CINEMA 3 23 May 23:09:43 23:13:03 17° 272° (W) 23:16:14 145.822/145.860
UKube-1 23 May 23:15:03 23:19:21 70° 258° (WSW) 23:23:41 .
VELOX 1 23 May 23:18:07 23:22:29 65° 75° (ENE) 23:26:55 145.980
DX 1 23 May 23:18:22 23:22:40 60° 259° (W) 23:27:00 434.975-435.025
GONETS M04 23 May 23:22:39 23:26:46 14° 53° (NE) 23:31:27
CUBEBUG 1 23 May 23:27:16 23:31:20 40° 71° (ENE) 23:35:28 437.445
Oscar 11 23 May 23:28:49 23:31:25 15° 271° (W) 23:33:50 145.826/435.025
HUMSAT D 23 May 23:29:40 23:33:53 50° 261° (W) 23:38:06 437.325/437.525
ANTELSAT 23 May 23:34:37 23:38:42 35° 96° (E) 23:42:42 437.575/2403.000
POLYITAN 1 23 May 23:38:30 23:41:27 18° 91° (E) 23:44:29 437.675
QB50P1 23 May 23:38:35 23:41:30 18° 91° (E) 23:44:31 145.935-145.965
BUGSAT 1 23 May 23:39:49 23:41:32 12° 88° (E) 23:43:27 437.445
50 SAT 23 May 23:41:36 23:45:35 60° 259° (W) 23:49:34 437.505
UWE-3 23 May 23:44:42 23:47:40 16° 271° (W) 23:50:27 435.000/436.395/437.385
AISAT 23 May 23:48:26 23:52:49 58° 260° (W) 23:57:14 437.250
CUSAT 1 24 May 00:02:15 00:08:45 29° 62° (ENE) 00:14:22 437.405
FUNcube-1 24 May 00:05:45 00:07:43 12° 273° (W) 00:09:27 145.935
TIGRISAT 24 May 00:08:58 00:13:26 82° 103° (ESE) 00:17:46 435.000
NANOSAT C BR1 24 May 00:10:30 00:14:32 39° 98° (E) 00:18:33 145.865
QB50P2 24 May 00:15:43 00:19:52 46° 99° (E) 00:23:59 145.880/145.840
SPROUT 24 May 00:20:08 00:24:11 42° 72° (ENE) 00:28:18 437.525
Cosmos 2504 24 May 00:25:11 00:29:21 16° 280° (W) 00:33:06 435.465 / 435.565
UNISAT 6 24 May 00:27:52 00:32:16 60° 287° (WNW) 00:36:31 437.425
POPSAT HIP 1 24 May 00:28:50 00:33:08 64° 101° (E) 00:37:22 437.405
DUCHIFAT 1 24 May 00:33:48 00:38:05 71° 102° (ESE) 00:42:20 145.980
ESTCUBE 1 24 May 00:44:00 00:47:52 27° 265° (W) 00:51:41 437.505/2401.250
DANDE 24 May 00:48:20 00:56:20 50° 71° (ENE) 01:02:58 436.750
TISAT 1 24 May 00:57:20 01:01:34 80° 76° (ENE) 01:05:52 437.305
VELOX 1 24 May 00:57:39 00:59:35 12° 272° (W) 01:01:18 145.980
CUBEBUG 1 24 May 01:04:45 01:07:55 19° 269° (W) 01:10:59 437.445
ANTELSAT 24 May 01:11:49 01:15:18 22° 294° (WNW) 01:18:38 437.575/2403.000
BUGSAT 1 24 May 01:13:14 01:17:29 61° 286° (WNW) 01:21:39 437.445
POLYITAN 1 24 May 01:13:30 01:17:35 41° 288° (WNW) 01:21:34 437.675
QB50P1 24 May 01:13:31 01:17:35 41° 288° (WNW) 01:21:35 145.935-145.965
GONETS M04 24 May 01:17:02 01:25:50 68° 78° (ENE) 01:34:32
Cosmos 2499 24 May 01:19:54 01:20:34 10° 54° (NE) 01:21:45 435.465 / 435.565
ITUPSAT 1 24 May 01:43:36 01:48:02 41° 70° (ENE) 01:52:31 437.325
CUSAT 1 24 May 01:44:35 01:52:05 57° 267° (W) 01:58:01 437.405
NANOSAT C BR1 24 May 01:46:57 01:50:08 20° 294° (WNW) 01:53:11 145.865
TIGRISAT 24 May 01:48:16 01:49:34 11° 299° (WNW) 01:50:38 435.000
PCSat 24 May 01:48:32 01:53:19 34° 111° (ESE) 01:58:11 145.827
ISS 24 May 01:50:47 01:54:02 77° 143° (SE) 01:57:17 145.825
QB50P2 24 May 01:52:33 01:55:26 17° 295° (WNW) 01:58:11 145.880/145.840
BEESAT 24 May 01:53:25 01:58:01 52° 72° (ENE) 02:02:39 436.000
SPROUT 24 May 01:57:26 02:00:31 18° 269° (W) 02:03:28 437.525
SWISSCUBE 24 May 02:01:12 02:05:55 68° 74° (ENE) 02:10:40 437.505
POPSAT HIP 1 24 May 02:06:23 02:08:32 13° 297° (WNW) 02:10:31 437.405
DUCHIFAT 1 24 May 02:11:36 02:13:23 12° 298° (WNW) 02:14:58 145.980
O/OREOS (USA 219) 24 May 02:29:57 02:34:17 48° 62° (ENE) 02:38:38 437.305
DANDE 24 May 02:32:04 02:39:18 35° 274° (W) 02:45:16 436.750
STARS 24 May 02:32:23 02:34:58 16° 64° (ENE) 02:37:44 437.465
Oscar 19 24 May 02:33:04 02:37:59 44° 98° (E) 02:42:54 437.125/150
ITAMSAT 1 24 May 02:40:42 02:43:37 15° 89° (E) 02:46:47 435.822/435.867
KKS-1 24 May 02:54:08 02:58:17 39° 70° (ENE) 03:02:31 437.445
Gurwin Techsat 1B 24 May 02:57:17 03:01:14 21° 91° (E) 03:05:19 435.225
BEESAT 3 24 May 03:02:44 03:05:24 17° 39° (NE) 03:08:07 437.485
Cosmos 2499 24 May 03:08:35 03:15:37 63° 78° (ENE) 03:22:40 435.465 / 435.565
GONETS M04 24 May 03:14:57 03:22:01 27° 278° (W) 03:28:46
VERMONT LUNAR 24 May 03:22:03 03:23:27 12° 151° (SSE) 03:24:55 437.305
ITUPSAT 1 24 May 03:22:23 03:26:07 22° 267° (W) 03:29:46 437.325
SO-50 24 May 03:26:08 03:26:37 10° 107° (ESE) 03:27:27 436.795
ISS 24 May 03:27:59 03:30:44 24° 344° (NNW) 03:33:29 145.825
PCSat 24 May 03:31:38 03:36:41 38° 309° (NW) 03:41:45 145.827
BEESAT 24 May 03:33:00 03:36:13 17° 270° (W) 03:39:17 436.000
SWISSCUBE 24 May 03:41:58 03:44:21 13° 272° (W) 03:46:29 437.505
BEESAT 2 24 May 03:46:10 03:49:51 31° 47° (NE) 03:53:31 435.950
MOZHAYETS 4 24 May 03:59:46 04:02:36 17° 64° (ENE) 04:05:35
STARS 24 May 04:06:39 04:11:01 56° 259° (W) 04:15:26 437.465
O/OREOS (USA 219) 24 May 04:10:27 04:13:21 17° 259° (WSW) 04:16:07 437.305
Oscar 19 24 May 04:12:55 04:17:08 25° 295° (WNW) 04:21:11 437.125/150
ITAMSAT 1 24 May 04:18:31 04:23:43 68° 287° (WNW) 04:28:54 435.822/435.867
JAS-2 24 May 04:29:11 04:33:24 25° 93° (E) 04:37:44 435.910
KKS-1 24 May 04:31:41 04:35:07 21° 268° (W) 04:38:26 437.445
Gurwin Techsat 1B 24 May 04:36:24 04:41:33 51° 289° (WNW) 04:46:40 435.225
BEESAT 3 24 May 04:39:46 04:43:50 65° 239° (WSW) 04:47:49 437.485
PHONESAT 2.4 24 May 04:46:12 04:48:26 16° 152° (SSE) 04:50:42 2401.200-2431.200
AIST 2 24 May 04:51:55 04:55:57 42° 50° (NE) 04:59:57 435.215
VERMONT LUNAR 24 May 04:57:09 05:00:10 37° 166° (SSE) 05:03:10 437.305
SO-50 24 May 05:01:45 05:06:27 86° 123° (ESE) 05:11:20 436.795
Cosmos 2499 24 May 05:02:54 05:08:12 22° 276° (W) 05:13:16 435.465 / 435.565
ISS 24 May 05:05:35 05:07:56 18° 4° (N) 05:10:16 145.825
HORYU 2 24 May 05:12:37 05:17:05 76° 102° (ESE) 05:21:30 437.375
AO-7 24 May 05:20:18 05:28:31 58° 102° (ESE) 05:36:45 29.400- 29.500
BEESAT 2 24 May 05:24:21 05:27:53 28° 245° (WSW) 05:31:19 435.950
CUBESAT XI-V 24 May 05:30:11 05:31:57 12° 62° (ENE) 05:33:56 437.345
MOZHAYETS 4 24 May 05:34:58 05:39:27 55° 260° (W) 05:43:58
